TimeEST,TemperatureF,Dew PointF,Humidity,Sea Level PressureIn,VisibilityMPH,Wind Direction,Wind SpeedMPH,Gust SpeedMPH,PrecipitationIn,Events,Conditions,WindDirDegrees,DateUTC
12:15 AM,21.2,14.4,75,30.37,10.0,Calm,Calm,-,N/A,,Clear,0,2013-02-10 05:15:00
12:35 AM,21.2,15.1,77,30.37,10.0,Calm,Calm,-,N/A,,Clear,0,2013-02-10 05:35:00
12:55 AM,21.2,15.4,78,30.37,10.0,Calm,Calm,-,N/A,,Clear,0,2013-02-10 05:55:00
1:15 AM,19.6,13.8,78,30.37,10.0,Calm,Calm,-,N/A,,Clear,0,2013-02-10 06:15:00
1:35 AM,20.7,15.6,81,30.38,10.0,Calm,Calm,-,N/A,,Clear,0,2013-02-10 06:35:00
1:55 AM,19.6,15.3,83,30.38,10.0,Calm,Calm,-,N/A,,Clear,0,2013-02-10 06:55:00
2:15 AM,20.7,15.1,79,30.38,10.0,Calm,Calm,-,N/A,,Clear,0,2013-02-10 07:15:00
2:35 AM,19.4,14.0,80,30.38,10.0,Calm,Calm,-,N/A,,Clear,0,2013-02-10 07:35:00
2:55 AM,19.4,14.5,81,30.37,10.0,Calm,Calm,-,N/A,,Clear,0,2013-02-10 07:55:00
3:35 AM,19.4,14.7,82,30.37,10.0,Calm,Calm,-,N/A,,Clear,0,2013-02-10 08:35:00
3:55 AM,18.0,13.5,83,30.37,10.0,Calm,Calm,-,N/A,,Clear,0,2013-02-10 08:55:00
4:15 AM,17.6,13.5,84,30.37,10.0,Calm,Calm,-,N/A,,Clear,0,2013-02-10 09:15:00
4:35 AM,19.4,15.4,85,30.38,10.0,Calm,Calm,-,N/A,,Clear,0,2013-02-10 09:35:00
4:55 AM,16.7,13.1,86,30.38,10.0,Calm,Calm,-,N/A,,Clear,0,2013-02-10 09:55:00
5:15 AM,17.4,12.6,81,30.38,10.0,Calm,Calm,-,N/A,,Clear,0,2013-02-10 10:15:00
5:35 AM,16.7,13.1,86,30.39,10.0,Calm,Calm,-,N/A,,Clear,0,2013-02-10 10:35:00
5:55 AM,17.6,13.8,85,30.40,10.0,Calm,Calm,-,N/A,,Clear,0,2013-02-10 10:55:00
6:15 AM,18.3,14.4,85,30.40,10.0,Calm,Calm,-,N/A,,Clear,0,2013-02-10 11:15:00
6:35 AM,18.5,14.5,85,30.40,10.0,Calm,Calm,-,N/A,,Clear,0,2013-02-10 11:35:00
6:55 AM,18.5,14.4,84,30.40,10.0,Calm,Calm,-,N/A,,Clear,0,2013-02-10 11:55:00
7:15 AM,17.6,14.0,86,30.42,10.0,Calm,Calm,-,N/A,,Clear,0,2013-02-10 12:15:00
7:35 AM,18.5,14.2,83,30.42,10.0,Calm,Calm,-,N/A,,Clear,0,2013-02-10 12:35:00
7:55 AM,21.2,16.5,82,30.43,10.0,Calm,Calm,-,N/A,,Clear,0,2013-02-10 12:55:00
8:15 AM,21.7,16.5,80,30.43,10.0,Calm,Calm,-,N/A,,Clear,0,2013-02-10 13:15:00
8:35 AM,24.3,19.2,81,30.43,10.0,Calm,Calm,-,N/A,,Clear,0,2013-02-10 13:35:00
8:55 AM,27.9,20.3,73,30.43,10.0,SW,3.5,-,N/A,,Clear,220,2013-02-10 13:55:00
9:15 AM,30.0,21.9,72,30.43,10.0,WSW,3.5,-,N/A,,Clear,240,2013-02-10 14:15:00
9:35 AM,33.6,19.6,56,30.43,10.0,South,6.9,-,N/A,,Clear,190,2013-02-10 14:35:00
9:55 AM,35.6,17.8,48,30.42,10.0,South,6.9,-,N/A,,Clear,180,2013-02-10 14:55:00
10:15 AM,36.5,14.4,40,30.42,10.0,SSW,8.1,-,N/A,,Clear,200,2013-02-10 15:15:00
10:35 AM,37.4,14.4,39,30.41,10.0,South,5.8,-,N/A,,Clear,170,2013-02-10 15:35:00
10:55 AM,38.3,12.6,35,30.40,10.0,South,6.9,-,N/A,,Clear,190,2013-02-10 15:55:00
11:15 AM,39.4,11.8,32,30.40,10.0,SSW,10.4,-,N/A,,Clear,200,2013-02-10 16:15:00
11:35 AM,40.6,12.6,32,30.39,10.0,SSW,9.2,16.1,N/A,,Clear,200,2013-02-10 16:35:00
11:55 AM,40.5,12.9,33,30.38,10.0,South,10.4,-,N/A,,Clear,170,2013-02-10 16:55:00
12:15 PM,41.5,13.5,32,30.38,10.0,South,10.4,-,N/A,,Clear,170,2013-02-10 17:15:00
12:35 PM,41.9,14.0,32,30.36,10.0,South,9.2,-,N/A,,Clear,180,2013-02-10 17:35:00
12:55 PM,42.1,14.0,32,30.35,10.0,SSE,9.2,-,N/A,,Scattered Clouds,160,2013-02-10 17:55:00
1:15 PM,43.0,13.6,30,30.33,10.0,SSE,10.4,-,N/A,,Scattered Clouds,160,2013-02-10 18:15:00
1:35 PM,46.0,14.5,28,30.32,10.0,South,11.5,16.1,N/A,,Clear,180,2013-02-10 18:35:00
1:55 PM,45.1,14.4,29,30.30,10.0,South,8.1,-,N/A,,Clear,180,2013-02-10 18:55:00
2:15 PM,45.5,13.8,28,30.30,10.0,South,8.1,-,N/A,,Clear,170,2013-02-10 19:15:00
2:35 PM,45.7,14.5,29,30.29,10.0,South,9.2,-,N/A,,Clear,170,2013-02-10 19:35:00
2:55 PM,45.7,13.8,28,30.29,10.0,South,8.1,-,N/A,,Clear,170,2013-02-10 19:55:00
3:15 PM,45.9,14.5,28,30.28,10.0,SSE,10.4,-,N/A,,Clear,160,2013-02-10 20:15:00
3:35 PM,45.3,14.7,29,30.27,10.0,South,9.2,-,N/A,,Clear,170,2013-02-10 20:35:00
3:55 PM,44.2,14.0,30,30.28,10.0,SSE,10.4,17.3,N/A,,Clear,160,2013-02-10 20:55:00
4:15 PM,43.9,14.7,31,30.27,10.0,South,8.1,-,N/A,,Clear,170,2013-02-10 21:15:00
4:35 PM,43.7,14.9,31,30.26,10.0,South,10.4,16.1,N/A,,Clear,170,2013-02-10 21:35:00
4:55 PM,43.5,14.9,32,30.27,10.0,South,11.5,19.6,N/A,,Clear,170,2013-02-10 21:55:00
5:15 PM,42.8,15.4,33,30.27,10.0,South,10.4,-,N/A,,Clear,170,2013-02-10 22:15:00
5:35 PM,42.3,15.6,34,30.27,10.0,SSE,8.1,-,N/A,,Clear,160,2013-02-10 22:35:00
5:55 PM,41.9,15.8,35,30.27,10.0,South,8.1,-,N/A,,Clear,170,2013-02-10 22:55:00
6:15 PM,41.9,16.0,35,30.26,10.0,South,6.9,-,N/A,,Scattered Clouds,180,2013-02-10 23:15:00
6:35 PM,42.1,16.2,35,30.26,10.0,South,6.9,-,N/A,,Scattered Clouds,180,2013-02-10 23:35:00
6:55 PM,42.3,16.2,35,30.26,10.0,South,8.1,-,N/A,,Scattered Clouds,180,2013-02-10 23:55:00
7:15 PM,41.9,16.3,36,30.27,10.0,South,6.9,-,N/A,,Clear,180,2013-02-11 00:15:00
7:35 PM,42.1,16.5,36,30.27,10.0,South,8.1,-,N/A,,Scattered Clouds,180,2013-02-11 00:35:00
7:55 PM,41.9,16.7,36,30.27,10.0,South,5.8,-,N/A,,Scattered Clouds,170,2013-02-11 00:55:00
8:15 PM,41.9,16.7,36,30.26,10.0,South,8.1,-,N/A,,Scattered Clouds,170,2013-02-11 01:15:00
8:35 PM,41.9,17.4,37,30.25,10.0,South,8.1,-,N/A,,Clear,170,2013-02-11 01:35:00
8:55 PM,42.1,17.2,37,30.25,10.0,South,9.2,-,N/A,,Clear,170,2013-02-11 01:55:00
9:15 PM,42.1,17.6,37,30.24,10.0,South,8.1,-,N/A,,Clear,170,2013-02-11 02:15:00
9:35 PM,42.8,17.2,36,30.22,10.0,South,8.1,-,N/A,,Clear,180,2013-02-11 02:35:00
9:55 PM,42.8,17.6,36,30.22,10.0,South,8.1,-,N/A,,Scattered Clouds,190,2013-02-11 02:55:00
10:15 PM,43.3,17.6,36,30.22,10.0,South,6.9,-,N/A,,Mostly Cloudy,180,2013-02-11 03:15:00
10:35 PM,43.5,18.3,36,30.22,10.0,South,8.1,-,N/A,,Overcast,190,2013-02-11 03:35:00
10:55 PM,41.5,24.3,50,30.21,10.0,South,6.9,-,N/A,Rain,Rain,190,2013-02-11 03:55:00
11:15 PM,39.4,27.1,62,30.21,10.0,SSW,3.5,-,0.01,Rain,Light Rain,200,2013-02-11 04:15:00
11:35 PM,39.0,28.8,67,30.20,10.0,South,3.5,-,0.01,Rain,Light Rain,190,2013-02-11 04:35:00
11:55 PM,39.9,27.7,62,30.19,10.0,SSW,6.9,-,0.01,,Overcast,200,2013-02-11 04:55:00